When you browse on this site, cookies collect data to enhance your experience and personalize the content and advertising you see.
Visit our Privacy Policy to learn more. By continuing to use the site, you agree to this use of cookies and data.
  • In Schweiz
  • Länderverzeichnis
  • Für 7 Tage
  • Wassertemperatur
  • Satellitenkarten
  • Wetterkarte
  • Widgets
  • user-avatar
    Anmelden

    Stündliche Wetter Gorbachevo

    Heute, 22 Juli, Montag

    Zeit Temperatur Niederschläge Wind Luftdruck Luftfeuchtigkeit
    00:00 +16°C° 0 mm 1 m/S 750 mmHg 91%
    01:00 +15°C° 0 mm 1 m/S 750 mmHg 91%
    02:00 +14°C° 0 mm 0 m/S 750 mmHg 91%
    03:00 +14°C° 0 mm 0 m/S 750 mmHg 92%
    04:00 +15°C° 0 mm 0 m/S 750 mmHg 92%
    05:00 +16°C° 0 mm 1 m/S 750 mmHg 92%
    06:00 +19°C° 0 mm 1 m/S 750 mmHg 87%
    07:00 +20°C° 0 mm 1 m/S 750 mmHg 82%
    08:00 +22°C° 0 mm 1 m/S 750 mmHg 76%
    09:00 +23°C° 0 mm 1 m/S 750 mmHg 71%
    10:00 +24°C° 0 mm 1 m/S 750 mmHg 65%
    11:00 +26°C° 0 mm 1 m/S 749 mmHg 60%
    12:00 +26°C° 0 mm 1 m/S 749 mmHg 58%
    13:00 +26°C° 0 mm 2 m/S 749 mmHg 56%
    14:00 +27°C° 0 mm 2 m/S 749 mmHg 54%
    15:00 +26°C° 0 mm 2 m/S 748 mmHg 59%
    16:00 +26°C° 0 mm 2 m/S 748 mmHg 63%
    17:00 +26°C° 0 mm 2 m/S 748 mmHg 68%
    18:00 +24°C° 0.2 mm 2 m/S 748 mmHg 74%
    19:00 +21°C° 0.2 mm 2 m/S 747 mmHg 80%
    20:00 +19°C° 0.2 mm 2 m/S 747 mmHg 86%
    21:00 +19°C° 0.1 mm 2 m/S 747 mmHg 88%
    22:00 +19°C° 0.1 mm 1 m/S 747 mmHg 91%
    23:00 +19°C° 0.1 mm 1 m/S 747 mmHg 93%

    Morgen, 23 Juli, Dienstag

    Zeit Temperatur Niederschläge Wind Luftdruck Luftfeuchtigkeit
    00:00 +18°C° 0.4 mm 2 m/S 746 mmHg 93%
    01:00 +18°C° 0.4 mm 2 m/S 746 mmHg 94%
    02:00 +18°C° 0.4 mm 2 m/S 746 mmHg 94%
    03:00 +18°C° 0.1 mm 3 m/S 746 mmHg 94%
    04:00 +18°C° 0.1 mm 3 m/S 745 mmHg 95%
    05:00 +18°C° 0.1 mm 3 m/S 745 mmHg 96%
    06:00 +18°C° 0.2 mm 3 m/S 745 mmHg 94%
    07:00 +19°C° 0.2 mm 3 m/S 745 mmHg 92%
    08:00 +20°C° 0.2 mm 3 m/S 745 mmHg 90%
    09:00 +20°C° 0.1 mm 3 m/S 745 mmHg 85%
    10:00 +21°C° 0.1 mm 3 m/S 745 mmHg 80%
    11:00 +22°C° 0.1 mm 4 m/S 745 mmHg 75%
    12:00 +24°C° 0 mm 3 m/S 744 mmHg 72%
    13:00 +24°C° 0 mm 3 m/S 744 mmHg 69%
    14:00 +24°C° 0 mm 3 m/S 744 mmHg 65%
    15:00 +24°C° 0.1 mm 2 m/S 744 mmHg 67%
    16:00 +24°C° 0.1 mm 2 m/S 744 mmHg 69%
    17:00 +24°C° 0.1 mm 1 m/S 744 mmHg 71%
    18:00 +22°C° 0 mm 1 m/S 744 mmHg 77%
    19:00 +21°C° 0 mm 1 m/S 744 mmHg 84%
    20:00 +17°C° 0 mm 0 m/S 744 mmHg 90%
    21:00 +17°C° 0.1 mm 0 m/S 744 mmHg 91%
    22:00 +16°C° 0.1 mm 0 m/S 744 mmHg 92%
    23:00 +16°C° 0.1 mm 0 m/S 744 mmHg 92%

    übermorgen, 24 Juli, Mittwoch

    Zeit Temperatur Niederschläge Wind Luftdruck Luftfeuchtigkeit
    00:00 +18°C° 0 mm 1 m/S 744 mmHg 93%
    01:00 +18°C° 0 mm 1 m/S 744 mmHg 94%
    02:00 +18°C° 0 mm 1 m/S 744 mmHg 94%
    03:00 +18°C° 0.4 mm 1 m/S 744 mmHg 94%
    04:00 +18°C° 0.4 mm 1 m/S 744 mmHg 95%
    05:00 +17°C° 0.4 mm 2 m/S 744 mmHg 95%
    06:00 +17°C° 1 mm 2 m/S 744 mmHg 94%
    07:00 +17°C° 1 mm 3 m/S 744 mmHg 92%
    08:00 +18°C° 1 mm 3 m/S 744 mmHg 90%
    09:00 +18°C° 0.1 mm 3 m/S 744 mmHg 89%
    10:00 +18°C° 0.1 mm 3 m/S 744 mmHg 88%
    11:00 +18°C° 0.1 mm 2 m/S 744 mmHg 87%
    12:00 +18°C° 0 mm 2 m/S 744 mmHg 86%
    13:00 +18°C° 0 mm 2 m/S 744 mmHg 86%
    14:00 +18°C° 0 mm 2 m/S 744 mmHg 85%
    15:00 +19°C° 0 mm 1 m/S 744 mmHg 83%
    16:00 +19°C° 0 mm 1 m/S 744 mmHg 82%
    17:00 +19°C° 0 mm 1 m/S 745 mmHg 81%
    18:00 +19°C° 0 mm 1 m/S 744 mmHg 83%
    19:00 +18°C° 0 mm 1 m/S 744 mmHg 85%
    20:00 +16°C° 0 mm 1 m/S 744 mmHg 87%
    21:00 +16°C° 0 mm 1 m/S 744 mmHg 89%
    22:00 +15°C° 0 mm 1 m/S 744 mmHg 91%
    23:00 +14°C° 0 mm 1 m/S 744 mmHg 93%

    25 Juli, Donnerstag

    Zeit Temperatur Niederschläge Wind Luftdruck Luftfeuchtigkeit
    00:00 +14°C° 0 mm 1 m/S 744 mmHg 94%
    01:00 +14°C° 0 mm 1 m/S 744 mmHg 94%
    02:00 +13°C° 0 mm 1 m/S 744 mmHg 94%
    03:00 +13°C° 0 mm 0 m/S 744 mmHg 94%
    04:00 +13°C° 0 mm 0 m/S 744 mmHg 94%
    05:00 +13°C° 0 mm 0 m/S 744 mmHg 93%
    06:00 +15°C° 0 mm 0 m/S 745 mmHg 88%
    07:00 +19°C° 0 mm 1 m/S 745 mmHg 82%
    08:00 +20°C° 0 mm 1 m/S 745 mmHg 77%
    09:00 +21°C° 0 mm 1 m/S 745 mmHg 75%
    10:00 +21°C° 0 mm 2 m/S 745 mmHg 73%
    11:00 +23°C° 0 mm 2 m/S 745 mmHg 71%
    12:00 +23°C° 0.6 mm 2 m/S 745 mmHg 73%
    13:00 +22°C° 0.6 mm 3 m/S 745 mmHg 75%
    14:00 +24°C° 0.6 mm 3 m/S 745 mmHg 76%
    15:00 +22°C° 0.7 mm 4 m/S 745 mmHg 80%
    16:00 +21°C° 0.7 mm 4 m/S 745 mmHg 84%
    17:00 +20°C° 0.7 mm 5 m/S 745 mmHg 88%
    18:00 +19°C° 0 mm 4 m/S 746 mmHg 91%
    19:00 +18°C° 0 mm 3 m/S 746 mmHg 93%
    20:00 +17°C° 0 mm 3 m/S 746 mmHg 96%
    21:00 +17°C° 0 mm 3 m/S 746 mmHg 96%
    22:00 +17°C° 0 mm 3 m/S 746 mmHg 97%
    23:00 +16°C° 0 mm 3 m/S 746 mmHg 97%

    26 Juli, Freitag

    Zeit Temperatur Niederschläge Wind Luftdruck Luftfeuchtigkeit
    00:00 +16°C° 0 mm 3 m/S 746 mmHg 97%
    01:00 +16°C° 0 mm 3 m/S 746 mmHg 96%
    02:00 +16°C° 0 mm 3 m/S 746 mmHg 96%
    03:00 +17°C° 0 mm 3 m/S 746 mmHg 96%
    04:00 +17°C° 0 mm 4 m/S 746 mmHg 95%
    05:00 +17°C° 0 mm 4 m/S 746 mmHg 95%
    06:00 +18°C° 0 mm 4 m/S 746 mmHg 92%
    07:00 +19°C° 0 mm 5 m/S 746 mmHg 89%
    08:00 +20°C° 0 mm 5 m/S 746 mmHg 87%
    09:00 +21°C° 0.3 mm 5 m/S 746 mmHg 85%
    10:00 +22°C° 0.3 mm 5 m/S 746 mmHg 83%
    11:00 +22°C° 0.3 mm 5 m/S 746 mmHg 81%
    12:00 +22°C° 0.3 mm 4 m/S 746 mmHg 83%
    13:00 +22°C° 0.3 mm 3 m/S 746 mmHg 84%
    14:00 +23°C° 0.3 mm 2 m/S 745 mmHg 85%
    15:00 +23°C° 0.9 mm 2 m/S 745 mmHg 85%
    16:00 +22°C° 0.9 mm 3 m/S 745 mmHg 85%
    17:00 +22°C° 0.9 mm 3 m/S 745 mmHg 85%
    18:00 +21°C° 0.2 mm 3 m/S 745 mmHg 87%
    19:00 +20°C° 0.2 mm 2 m/S 745 mmHg 89%
    20:00 +19°C° 0.2 mm 2 m/S 745 mmHg 91%
    21:00 +19°C° 0 mm 2 m/S 745 mmHg 92%
    22:00 +19°C° 0 mm 3 m/S 745 mmHg 92%
    23:00 +18°C° 0 mm 3 m/S 745 mmHg 93%

    27 Juli, Samstag

    Zeit Temperatur Niederschläge Wind Luftdruck Luftfeuchtigkeit
    00:00 +18°C° 0.2 mm 3 m/S 745 mmHg 93%
    01:00 +18°C° 0.2 mm 4 m/S 745 mmHg 93%
    02:00 +18°C° 0.2 mm 4 m/S 745 mmHg 93%
    03:00 +18°C° 0 mm 4 m/S 745 mmHg 94%
    04:00 +18°C° 0 mm 3 m/S 745 mmHg 95%
    05:00 +18°C° 0 mm 3 m/S 745 mmHg 96%
    06:00 +19°C° 0.1 mm 3 m/S 745 mmHg 93%
    07:00 +20°C° 0.1 mm 4 m/S 745 mmHg 90%
    08:00 +21°C° 0.1 mm 4 m/S 745 mmHg 86%
    09:00 +23°C° 0.6 mm 4 m/S 745 mmHg 83%
    10:00 +25°C° 0.6 mm 4 m/S 745 mmHg 79%
    11:00 +26°C° 0.6 mm 4 m/S 745 mmHg 75%
    12:00 +26°C° 0.7 mm 5 m/S 745 mmHg 74%
    13:00 +26°C° 0.7 mm 5 m/S 745 mmHg 72%
    14:00 +27°C° 0.7 mm 5 m/S 744 mmHg 70%
    15:00 +27°C° 0.1 mm 5 m/S 744 mmHg 72%
    16:00 +27°C° 0.1 mm 4 m/S 744 mmHg 73%
    17:00 +26°C° 0.1 mm 4 m/S 744 mmHg 75%
    18:00 +25°C° 0.1 mm 3 m/S 744 mmHg 79%
    19:00 +22°C° 0.1 mm 3 m/S 744 mmHg 84%
    20:00 +21°C° 0.1 mm 2 m/S 744 mmHg 89%
    21:00 +20°C° 0 mm 3 m/S 744 mmHg 90%
    22:00 +20°C° 0 mm 3 m/S 745 mmHg 92%
    23:00 +19°C° 0 mm 3 m/S 745 mmHg 94%
    Mehr zeigen